R/V Atlantis Calliope CSV data file  (Time stamps are GMT)
Date, Time_GMT, Dec_Lat, Dec_Lon, Depth12, Depth35, GPS_COG, GPS_SOG, Gyro, Air_Temp, IMET_BPR, IMET_SWR, HRH, PhinsHd, SBE45C, SBE45S, SBE45T, Salinity, SSTMP, SSV, SSCND, SST_FSI, SST_SBE48, Wnd_Dir, Wnd_Spd, HdChkSum=1B
2009/03/21, 00:00:03, 20.364233, -110.201983, , , 335.0, 12.00, 334.6, 22.246, 1009.07, 254.2, 78.474, 333.7, , , , 34.3533, 23.8380, 1530.8437, 51.0017, 11.9825, 23.8380, 318.2, 7.3234, 1B
2009/03/21, 00:01:01, 20.367233, -110.203433, , , 336.0, 11.70, 334.7, 22.254, 1009.16, 264.2, 79.462, 334.1, , , , 34.3640, 23.8389, 1530.8568, 51.0164, 11.6694, 23.8389, 312.0, 6.7497, 1B
2009/03/21, 00:02:02, 20.370233, -110.204867, , , 335.0, 11.80, 335.0, 22.231, 1009.08, 264.8, 78.106, 333.9, , , , 34.3485, 23.8381, 1530.8387, 50.9954, 11.6825, 23.8381, 324.5, 6.8966, 1B
2009/03/21, 00:03:01, 20.373250, -110.206317, , , 335.0, 11.90, 334.7, 22.231, 1009.14, 262.6, 77.853, 333.7, , , , 34.3337, 23.8296, 1530.8077, 50.9697, 11.6488, 23.8296, 324.3, 7.0109, 1B
2009/03/21, 00:04:02, 20.376267, -110.207783, , , 336.0, 11.70, 334.9, 22.223, 1009.19, 263.5, 78.213, 334.2, , , , 34.3059, 23.8103, 1530.7230, 50.9107, 11.6034, 23.8103, 325.1, 7.1054, 1B
2009/03/21, 00:05:02, 20.379300, -110.209250, , , 334.0, 11.90, 335.0, 22.270, 1009.16, 261.8, 79.508, 334.3, , , , 34.3164, 23.7943, 1530.6945, 50.9083, 11.6072, 23.7943, 327.3, 6.6287, 1B
2009/03/21, 00:06:02, 20.382367, -110.210700, , , 336.0, 11.70, 335.3, 22.208, 1009.15, 249.6, 78.121, 334.2, , , , 34.3335, 23.7779, 1530.6721, 50.9141, 11.6176, 23.7779, 317.2, 7.2803, 1B
2009/03/21, 00:07:01, 20.385400, -110.212167, , , 335.0, 12.00, 335.2, 22.223, 1009.08, 243.3, 78.466, 334.5, , , , 34.3689, 23.7697, 1530.6900, 50.9525, 11.6455, 23.7697, 321.4, 7.3806, 1B
2009/03/21, 00:08:01, 20.388433, -110.213600, , , 336.0, 11.80, 334.5, 22.216, 1009.39, 241.5, 78.014, 333.3, , , , 34.4005, 23.7719, 1530.7264, 50.9950, 11.7826, 23.7719, 312.3, 7.3663, 1B
2009/03/21, 00:09:01, 20.391467, -110.215083, , , 334.0, 12.10, 335.4, 22.200, 1009.10, 182.7, 78.244, 333.9, , , , 34.3882, 23.7773, 1530.7280, 50.9849, 11.6716, 23.7773, 319.2, 7.4270, 1B
2009/03/21, 00:10:01, 20.394500, -110.216533, , , 336.0, 11.80, 334.9, 22.200, 1009.28, 175.1, 78.466, 334.4, , , , 34.3887, 23.7822, 1530.7395, 50.9901, 11.6969, 23.7822, 323.7, 7.3319, 1B
2009/03/21, 00:11:01, 20.397533, -110.217967, , , 338.0, 11.90, 334.7, 22.208, 1009.21, 219.9, 78.543, 333.8, , , , 34.3756, 23.7856, 1530.7358, 50.9771, 11.6759, 23.7856, 314.8, 7.5033, 1B
2009/03/21, 00:12:01, 20.400517, -110.219433, , , 336.0, 11.80, 334.6, 22.208, 1009.19, 238.2, 79.102, 333.8, , , , 34.3720, 23.7902, 1530.7434, 50.9770, 11.8502, 23.7902, 310.8, 7.5029, 1B
2009/03/21, 00:13:01, 20.403533, -110.220867, , , 334.0, 11.50, 334.6, 22.185, 1009.45, 236.0, 78.773, 333.6, , , , 34.3779, 23.7973, 1530.7653, 50.9911, 11.7145, 23.7973, 309.5, 7.5584, 1B
2009/03/21, 00:14:02, 20.406517, -110.222317, , , 334.0, 11.60, 334.6, 22.162, 1009.13, 222.6, 78.091, 333.8, , , , 34.3949, 23.8080, 1530.8140, 51.0260, 11.6845, 23.8080, 316.7, 7.7593, 1B
2009/03/21, 00:15:02, 20.409467, -110.223733, , , 336.0, 11.70, 335.2, 22.169, 1009.14, 224.6, 77.340, 334.4, , , , 34.3998, 23.8202, 1530.8498, 51.0449, 11.9028, 23.8202, 324.7, 7.0497, 1B
2009/03/21, 00:16:01, 20.412417, -110.225167, , , 336.0, 11.60, 334.1, 22.177, 1009.23, 219.6, 78.052, 334.1, , , , 34.3939, 23.8336, 1530.8691, 51.0477, 11.7520, 23.8336, 318.5, 7.2085, 1B
2009/03/21, 00:17:01, 20.415350, -110.226633, , , 334.0, 11.90, 334.7, 22.193, 1009.15, 222.6, 78.482, 334.0, , , , 34.3989, 23.8460, 1530.9104, 51.0690, 11.7785, 23.8460, 322.1, 6.4933, 1B
2009/03/21, 00:18:02, 20.418317, -110.228083, , , 334.0, 11.80, 334.9, 22.185, 1009.26, 216.5, 78.535, 333.9, , , , 34.3766, 23.8562, 1530.9144, 51.0511, 11.7429, 23.8562, 325.4, 6.9168, 1B
2009/03/21, 00:19:02, 20.421283, -110.229550, , , 335.0, 11.40, 334.6, 22.154, 1009.21, 209.5, 77.907, 334.0, , , , 34.4103, 23.8646, 1530.9719, 51.1042, 11.7776, 23.8646, 309.3, 6.9945, 1B
2009/03/21, 00:20:02, 20.424233, -110.231033, , , 334.0, 11.40, 334.7, 22.146, 1009.13, 202.5, 76.903, 334.0, , , , 34.3785, 23.8720, 1530.9558, 51.0697, 11.8283, 23.8720, 307.3, 7.8447, 1B
2009/03/21, 00:21:02, 20.427183, -110.232483, , , 334.0, 11.70, 334.8, 22.154, 1009.21, 192.4, 77.669, 334.2, , , , 34.3254, 23.8604, 1530.8693, 50.9876, 11.7192, 23.8604, 307.5, 7.3329, 1B
2009/03/21, 00:22:01, 20.430150, -110.233933, , , 335.0, 11.70, 334.6, 22.177, 1009.34, 182.9, 78.512, 333.9, , , , 34.1579, 23.8039, 1530.5738, 50.7199, 11.4915, 23.8039, 308.8, 7.1812, 1B
2009/03/21, 00:23:02, 20.433117, -110.235400, , , 334.0, 11.70, 334.5, 22.139, 1009.13, 162.4, 77.922, 333.8, , , , 34.1652, 23.7359, 1530.3841, 50.6492, 11.4412, 23.7359, 319.6, 6.6976, 1B
2009/03/21, 00:24:01, 20.436083, -110.236867, , , 335.0, 11.80, 335.4, 22.139, 1009.08, 150.5, 77.922, 334.8, , , , 34.1923, 23.6760, 1530.2858, 50.6331, 11.4167, 23.6760, 325.0, 6.7414, 1B
2009/03/21, 00:25:01, 20.439050, -110.238317, , , 335.0, 11.80, 334.5, 22.162, 1009.15, 120.6, 78.183, 334.6, , , , 34.2292, 23.6273, 1530.1977, 50.6298, 11.4116, 23.6273, 322.2, 6.6351, 1B
2009/03/21, 00:26:01, 20.442000, -110.239817, , , 334.0, 11.80, 334.3, 22.108, 1009.28, 128.9, 77.769, 333.4, , , , 34.2566, 23.5884, 1530.1288, 50.6259, 11.4107, 23.5884, 310.9, 6.7837, 1B
2009/03/21, 00:27:01, 20.444950, -110.241283, , , 335.0, 11.50, 334.9, 22.108, 1009.03, 74.0, 77.815, 334.2, , , , 34.2595, 23.5575, 1530.0389, 50.5921, 11.3755, 23.5575, 310.0, 7.1232, 1B
2009/03/21, 00:28:02, 20.447900, -110.242767, , , 335.0, 12.00, 334.7, 22.131, 1009.02, 64.0, 78.183, 334.4, , , , 34.2796, 23.5303, 1529.9923, 50.5908, 11.4184, 23.5303, 305.6, 6.8713, 1B
2009/03/21, 00:29:02, 20.450883, -110.244250, , , 331.0, 11.60, 334.6, 22.108, 1009.23, 162.5, 77.968, 333.5, , , , 34.2778, 23.5063, 1529.9299, 50.5641, 11.3980, 23.5063, 321.7, 6.9175, 1B
2009/03/21, 00:30:02, 20.453850, -110.245700, , , 334.0, 11.60, 335.5, 22.069, 1008.96, 110.5, 76.121, 334.4, , , , 34.2692, 23.4828, 1529.8614, 50.5289, 11.3773, 23.4828, 319.5, 7.7657, 1B
2009/03/21, 00:31:02, 20.456833, -110.247150, , , 335.0, 12.00, 334.5, 22.092, 1008.97, 118.9, 76.336, 333.6, , , , 34.2819, 23.4605, 1529.8190, 50.5228, 11.3185, 23.4605, 311.9, 7.2343, 1B
2009/03/21, 00:32:02, 20.459833, -110.248617, , , 334.0, 11.80, 334.4, 22.100, 1009.19, 99.9, 77.501, 334.0, , , , 34.2747, 23.4395, 1529.7581, 50.4920, 11.3379, 23.4395, 316.9, 7.0752, 1B
2009/03/21, 00:33:02, 20.462850, -110.250083, , , 336.0, 12.00, 335.9, 22.108, 1009.02, 163.3, 77.984, 335.0, , , , 34.2824, 23.4201, 1529.7175, 50.4824, 11.4193, 23.4201, 315.7, 6.5820, 1B
2009/03/21, 00:34:02, 20.465867, -110.251550, , , 335.0, 11.90, 335.1, 22.077, 1009.30, 114.1, 76.520, 334.0, , , , 34.2908, 23.4060, 1529.6911, 50.4791, 11.3363, 23.4060, 321.0, 7.3076, 1B
2009/03/21, 00:35:01, 20.468917, -110.253000, , , 337.0, 12.00, 335.1, 22.085, 1009.11, 106.7, 76.773, 334.3, , , , 34.3112, 23.3931, 1529.6807, 50.4926, 11.3370, 23.3931, 317.4, 7.1185, 1B
2009/03/21, 00:36:02, 20.471950, -110.254483, , , 335.0, 12.00, 334.3, 22.085, 1009.16, 142.7, 76.650, 334.1, , , , 34.3276, 23.3830, 1529.6731, 50.5038, 11.3622, 23.3830, 314.0, 7.2937, 1B
2009/03/21, 00:37:02, 20.474983, -110.255950, , , 334.0, 11.70, 334.8, 22.077, 1009.29, 143.7, 76.267, 334.4, , , , 34.3216, 23.3755, 1529.6476, 50.4884, 11.3465, 23.3755, 325.5, 7.5003, 1B
2009/03/21, 00:38:02, 20.478000, -110.257400, , , 336.0, 11.80, 334.6, 22.092, 1009.30, 139.7, 76.957, 333.9, , , , 34.3288, 23.3681, 1529.6367, 50.4902, 11.3659, 23.3681, 320.2, 7.0832, 1B
2009/03/21, 00:39:01, 20.481017, -110.258867, , , 336.0, 11.90, 334.6, 22.108, 1009.14, 96.8, 78.236, 334.1, , , , 34.3267, 23.3619, 1529.6230, 50.4829, 11.3523, 23.3619, 317.8, 6.9885, 1B
2009/03/21, 00:40:01, 20.484050, -110.260333, , , 337.0, 12.00, 334.2, 22.092, 1009.22, 115.3, 77.830, 333.5, , , , 34.3307, 23.3563, 1529.6115, 50.4817, 11.3529, 23.3563, 317.6, 6.6104, 1B
2009/03/21, 00:41:02, 20.487083, -110.261833, , , 338.0, 12.00, 334.7, 22.100, 1009.33, 147.9, 77.348, 334.1, , , , 34.3295, 23.3507, 1529.5935, 50.4735, 11.3304, 23.3507, 317.6, 6.6808, 1B
2009/03/21, 00:42:01, 20.490167, -110.263317, , , 335.0, 11.80, 334.9, 22.100, 1009.37, 83.2, 77.807, 334.4, , , , 34.3372, 23.3455, 1529.5905, 50.4790, 11.3390, 23.3455, 321.5, 6.4587, 1B
2009/03/21, 00:43:02, 20.493233, -110.264800, , , 334.0, 12.00, 334.6, 22.085, 1008.98, 95.0, 76.972, 334.0, , , , 34.3557, 23.3402, 1529.5954, 50.4970, 11.3546, 23.3402, 323.0, 7.3880, 1B
2009/03/21, 00:44:02, 20.496267, -110.266250, , , 334.0, 11.80, 335.7, 22.077, 1009.16, 69.0, 77.340, 335.0, , , , 34.3887, 23.3404, 1529.6319, 50.5405, 11.4076, 23.3404, 327.9, 7.0779, 1B
2009/03/21, 00:45:02, 20.499283, -110.267667, , , 333.0, 11.80, 333.9, 22.046, 1009.11, 81.7, 76.911, 333.3, , , , 34.4252, 23.3474, 1529.6894, 50.5953, 11.3143, 23.3474, 317.6, 7.0960, 1B
2009/03/21, 00:46:02, 20.502283, -110.269150, , , 335.0, 12.10, 334.4, 22.077, 1009.36, 112.5, 77.225, 334.0, , , , 34.4296, 23.3583, 1529.7218, 50.6122, 11.4542, 23.3583, 319.5, 7.2063, 1B
2009/03/21, 00:47:01, 20.505283, -110.270600, , , 335.0, 11.80, 334.9, 22.069, 1009.17, 106.7, 77.095, 334.4, , , , 34.4233, 23.3683, 1529.7367, 50.6128, 11.3970, 23.3683, 311.3, 7.0283, 1B
2009/03/21, 00:48:02, 20.508300, -110.272033, , , 338.0, 12.00, 334.5, 22.054, 1009.31, 104.3, 76.849, 333.8, , , , 34.4165, 23.3748, 1529.7492, 50.6119, 11.5934, 23.3748, 310.6, 7.3150, 1B
2009/03/21, 00:49:01, 20.511333, -110.273483, , , 338.0, 12.00, 334.5, 22.077, 1009.33, 91.2, 77.363, 333.9, , , , 34.4170, 23.3800, 1529.7629, 50.6179, 11.3632, 23.3800, 314.7, 7.1397, 1B
2009/03/21, 00:50:02, 20.514367, -110.274967, , , 335.0, 12.20, 335.2, 22.039, 1009.09, 84.0, 76.842, 334.3, , , , 34.4223, 23.3825, 1529.7750, 50.6274, 11.4060, 23.3825, 323.1, 6.7856, 1B
2009/03/21, 00:51:01, 20.517383, -110.276417, , , 331.0, 12.10, 335.2, 22.062, 1009.31, 80.7, 76.865, 334.4, , , , 34.4309, 23.3811, 1529.7826, 50.6379, 11.4207, 23.3811, 327.2, 6.7679, 1B
2009/03/21, 00:52:01, 20.520433, -110.277867, , , 336.0, 12.10, 335.0, 22.077, 1009.42, 51.8, 77.501, 334.1, , , , 34.4040, 23.3798, 1529.7477, 50.6005, 11.3953, 23.3798, 320.4, 6.9761, 1B
2009/03/21, 00:53:01, 20.523467, -110.279333, , , 335.0, 11.90, 334.4, 22.054, 1009.14, 63.9, 77.286, 333.9, , , , 34.4079, 23.3778, 1529.7484, 50.6041, 11.4612, 23.3778, 314.6, 6.8557, 1B
2009/03/21, 00:54:01, 20.526483, -110.280817, , , 336.0, 12.00, 334.9, 22.077, 1009.27, 84.6, 77.363, 334.2, , , , 34.4158, 23.3764, 1529.7522, 50.6207, 11.4272, 23.3764, 311.8, 6.8495, 1B
2009/03/21, 00:55:01, 20.529500, -110.282250, , , 336.0, 11.90, 334.9, 22.077, 1009.24, 78.7, 77.363, 334.4, , , , 34.4078, 23.3768, 1529.7413, 50.6012, 11.4295, 23.3768, 313.8, 6.3783, 1B
2009/03/21, 00:56:01, 20.532550, -110.283700, , , 333.0, 12.00, 334.7, 22.062, 1009.32, 68.8, 77.294, 334.6, , , , 34.4118, 23.3802, 1529.7550, 50.6102, 11.4630, 23.3802, 313.9, 6.8350, 1B
2009/03/21, 00:57:01, 20.535600, -110.285167, , , 335.0, 11.70, 335.4, 22.077, 1009.27, 47.1, 77.899, 334.3, , , , 34.4186, 23.3846, 1529.7742, 50.6238, 11.5030, 23.3846, 312.2, 6.6164, 1B
2009/03/21, 00:58:01, 20.538650, -110.286600, , , 336.0, 11.60, 334.6, 22.069, 1009.30, 50.9, 77.516, 334.0, , , , 34.4280, 23.3913, 1529.8034, 50.6438, 11.8085, 23.3913, 306.2, 7.1043, 1B
2009/03/21, 00:59:01, 20.541683, -110.288050, , , 337.0, 11.90, 333.8, 22.039, 1009.28, 46.5, 77.095, 334.0, , , , 34.4247, 23.3977, 1529.8115, 50.6442, 11.8276, 23.3977, 310.2, 7.6042, 1B
2009/03/21, 01:00:02, 20.544717, -110.289550, , , 334.0, 12.00, 334.5, 22.046, 1009.23, 41.6, 77.393, 334.1, , , , 34.4299, 23.4037, 1529.8368, 50.6589, 11.5107, 23.4037, 313.8, 7.3727, 1B
2009/03/21, 01:01:01, 20.547767, -110.291000, , , 338.0, 12.10, 334.6, 22.092, 1009.30, 48.3, 78.842, 334.1, , , , 34.4301, 23.4110, 1529.8527, 50.6655, 11.7377, 23.4110, 311.8, 7.1183, 1B
2009/03/21, 01:02:02, 20.550800, -110.292450, , , 337.0, 11.80, 334.6, 22.062, 1009.54, 58.6, 77.639, 334.0, , , , 34.4302, 23.4171, 1529.8710, 50.6731, 11.5347, 23.4171, 304.8, 7.9437, 1B
2009/03/21, 01:03:01, 20.553850, -110.293883, , , 336.0, 12.10, 334.3, 22.046, 1009.52, 52.0, 76.842, 333.7, , , , 34.4237, 23.4199, 1529.8687, 50.6665, 11.5094, 23.4199, 304.4, 8.3234, 1B
2009/03/21, 01:04:02, 20.556917, -110.295367, , , 335.0, 11.90, 334.7, 22.046, 1009.05, 43.8, 77.685, 334.0, , , , 34.4132, 23.4211, 1529.8626, 50.6548, 11.4880, 23.4211, 316.1, 7.3624, 1B
2009/03/21, 01:05:01, 20.559983, -110.296850, , , 337.0, 12.20, 335.2, 22.046, 1009.46, 33.7, 77.685, 334.0, , , , 34.4111, 23.4209, 1529.8600, 50.6520, 11.7598, 23.4209, 313.7, 7.3852, 1B
2009/03/21, 01:06:02, 20.563067, -110.298283, , , 336.0, 12.00, 335.7, 22.046, 1009.42, 35.9, 78.183, 334.9, , , , 34.4181, 23.4204, 1529.8661, 50.6605, 11.5276, 23.4204, 316.6, 6.7071, 1B
2009/03/21, 01:07:01, 20.566167, -110.299717, , , 336.0, 11.70, 334.7, 22.015, 1009.35, 32.0, 78.351, 334.3, , , , 34.4568, 23.4209, 1529.9096, 50.7118, 11.5247, 23.4209, 314.4, 7.0381, 1B
2009/03/21, 01:08:02, 20.569217, -110.301183, , , 337.0, 11.40, 335.1, 22.023, 1009.49, 35.8, 77.991, 334.4, , , , 34.4411, 23.4272, 1529.9084, 50.6976, 11.5556, 23.4272, 320.4, 7.6086, 1B
2009/03/21, 01:09:02, 20.572250, -110.302633, , , 337.0, 11.80, 334.9, 22.031, 1009.52, 34.4, 77.976, 334.1, , , , 34.4421, 23.4352, 1529.9296, 50.7071, 11.5117, 23.4352, 313.3, 7.3783, 1B
2009/03/21, 01:10:02, 20.575300, -110.304083, , , 335.0, 12.10, 334.7, 22.015, 1009.60, 25.3, 77.777, 334.3, , , , 34.4486, 23.4453, 1529.9622, 50.7259, 11.5811, 23.4453, 313.8, 6.6758, 1B
2009/03/21, 01:11:02, 20.578333, -110.305517, , , 336.0, 11.80, 334.7, 22.031, 1009.67, 19.6, 78.328, 334.0, , , , 34.4325, 23.4544, 1529.9676, 50.7141, 11.5657, 23.4544, 303.0, 7.2546, 1B
2009/03/21, 01:12:02, 20.581400, -110.306950, , , 337.0, 11.70, 334.4, 22.015, 1009.51, 18.0, 78.390, 334.3, , , , 34.4097, 23.4592, 1529.9549, 50.6891, 11.5876, 23.4592, 303.0, 7.4816, 1B
2009/03/21, 01:13:01, 20.584467, -110.308383, , , 336.0, 12.10, 334.7, 22.008, 1009.41, 17.8, 78.359, 334.3, , , , 34.4372, 23.4619, 1529.9915, 50.7280, 11.5308, 23.4619, 319.8, 6.3467, 1B
2009/03/21, 01:14:01, 20.587533, -110.309850, , , 335.0, 11.90, 334.7, 22.015, 1009.54, 18.9, 78.642, 334.0, , , , 34.4116, 23.4610, 1529.9632, 50.6942, 11.6456, 23.4610, 318.6, 7.0425, 1B
2009/03/21, 01:15:01, 20.590567, -110.311300, , , 337.0, 11.70, 334.7, 21.992, 1009.45, 17.2, 77.769, 334.3, , , , 34.3860, 23.4595, 1529.9288, 50.6580, 11.5873, 23.4595, 315.5, 7.7942, 1B
2009/03/21, 01:16:01, 20.593617, -110.312750, , , 337.0, 12.10, 335.3, 22.015, 1009.52, 16.0, 78.374, 334.4, , , , 34.3847, 23.4553, 1529.9188, 50.6439, 11.5668, 23.4553, 314.6, 6.5090, 1B
2009/03/21, 01:17:02, 20.596683, -110.314200, , , 335.0, 11.80, 334.6, 21.969, 1009.66, 14.8, 78.252, 333.7, , , , 34.3835, 23.4527, 1529.9099, 50.6481, 11.5601, 23.4527, 303.0, 6.9193, 1B
2009/03/21, 01:18:01, 20.599733, -110.315667, , , 338.0, 12.20, 334.8, 22.008, 1009.61, 14.2, 78.972, 334.3, , , , 34.3895, 23.4485, 1529.9059, 50.6517, 11.5622, 23.4485, 299.2, 7.0095, 1B
2009/03/21, 01:19:01, 20.602800, -110.317150, , , 336.0, 12.00, 334.6, 21.969, 1009.51, 12.9, 78.114, 334.7, , , , 34.3687, 23.4444, 1529.8729, 50.6203, 11.5656, 23.4444, 313.0, 7.3933, 1B
2009/03/21, 01:20:01, 20.605900, -110.318633, , , 336.0, 12.30, 334.6, 21.977, 1009.52, 11.9, 78.413, 334.1, , , , 34.3795, 23.4392, 1529.8728, 50.6297, 11.5510, 23.4392, 312.3, 6.8946, 1B
2009/03/21, 01:21:02, 20.609017, -110.320133, , , 335.0, 11.90, 334.7, 21.969, 1009.42, 10.9, 78.535, 334.2, , , , 34.3754, 23.4323, 1529.8497, 50.6167, 11.6086, 23.4323, 303.4, 7.1748, 1B
2009/03/21, 01:22:02, 20.612100, -110.321617, , , 335.0, 12.10, 334.7, 21.977, 1009.66, 10.1, 78.543, 334.0, , , , 34.3818, 23.4287, 1529.8475, 50.6214, 11.5316, 23.4287, 303.0, 6.9612, 1B
2009/03/21, 01:23:02, 20.615183, -110.323117, , , 335.0, 11.90, 334.2, 21.946, 1009.55, 9.1, 78.198, 333.7, , , , 34.4058, 23.4272, 1529.8699, 50.6514, 11.5564, 23.4272, 301.0, 7.2579, 1B
2009/03/21, 01:24:01, 20.618233, -110.324600, , , 335.0, 12.20, 334.6, 21.946, 1009.67, 8.2, 78.152, 333.4, , , , 34.3986, 23.4280, 1529.8628, 50.6423, 11.4423, 23.4280, 301.3, 7.3468, 1B
2009/03/21, 01:25:01, 20.621283, -110.326083, , , 334.0, 11.90, 335.5, 21.946, 1009.57, 7.4, 78.060, 334.1, , , , 34.3928, 23.4270, 1529.8562, 50.6346, 11.5599, 23.4270, 304.8, 7.7859, 1B
2009/03/21, 01:26:02, 20.624383, -110.327533, , , 338.0, 12.30, 335.1, 21.938, 1009.53, 6.5, 78.160, 335.2, , , , 34.3868, 23.4260, 1529.8462, 50.6253, 11.5382, 23.4260, 307.9, 7.5355, 1B
2009/03/21, 01:27:02, 20.627467, -110.328967, , , 336.0, 11.80, 334.8, 21.938, 1009.39, 5.8, 77.677, 333.9, , , , 34.3987, 23.4213, 1529.8473, 50.6361, 11.5526, 23.4213, 309.8, 7.5217, 1B
2009/03/21, 01:28:02, 20.630550, -110.330467, , , 339.0, 12.10, 334.1, 21.923, 1009.73, 5.1, 77.401, 333.8, , , , 34.3864, 23.4160, 1529.8205, 50.6145, 11.5487, 23.4160, 304.8, 7.8055, 1B
2009/03/21, 01:29:02, 20.633633, -110.332000, , , 336.0, 12.40, 334.7, 21.954, 1009.56, 4.3, 78.543, 334.1, , , , 34.3818, 23.4119, 1529.8051, 50.6043, 11.6136, 23.4119, 300.3, 6.9211, 1B
2009/03/21, 01:30:01, 20.636717, -110.333533, , , 336.0, 11.90, 334.5, 21.900, 1009.60, 4.1, 77.853, 333.6, , , , 34.3940, 23.4094, 1529.8121, 50.6177, 11.5211, 23.4094, 300.6, 7.7461, 1B
2009/03/21, 01:31:01, 20.639817, -110.335067, , , 337.0, 12.30, 335.6, 21.908, 1009.71, 3.6, 77.685, 334.3, , , , 34.4263, 23.4091, 1529.8463, 50.6597, 11.6367, 23.4091, 303.4, 7.2356, 1B
2009/03/21, 01:32:02, 20.642917, -110.336600, , , 333.0, 12.10, 334.4, 21.908, 1009.71, 3.1, 78.075, 334.0, , , , 34.4187, 23.4089, 1529.8378, 50.6496, 11.5824, 23.4089, 303.1, 7.5100, 1B
2009/03/21, 01:33:02, 20.646000, -110.338167, , , 336.0, 12.00, 335.1, 21.915, 1009.52, 2.7, 78.359, 334.6, , , , 34.4003, 23.4088, 1529.8175, 50.6254, 11.5399, 23.4088, 318.0, 7.3437, 1B
2009/03/21, 01:34:01, 20.649100, -110.339667, , , 335.0, 12.30, 334.9, 21.884, 1009.60, 2.6, 77.271, 334.6, , , , 34.3996, 23.4055, 1529.8111, 50.6222, 11.5466, 23.4055, 318.5, 6.7701, 1B
2009/03/21, 01:35:02, 20.652200, -110.341200, , , 336.0, 12.30, 334.6, 21.877, 1009.58, 2.3, 77.631, 334.1, , , , 34.3925, 23.4026, 1529.7933, 50.6088, 11.5084, 23.4026, 316.7, 7.5177, 1B
2009/03/21, 01:36:02, 20.655300, -110.342717, , , 332.0, 11.70, 334.3, 21.869, 1009.60, 2.0, 78.037, 333.7, , , , 34.3944, 23.3976, 1529.7827, 50.6063, 11.5283, 23.3976, 316.4, 7.0567, 1B
2009/03/21, 01:37:02, 20.658400, -110.344233, , , 333.0, 12.20, 334.7, 21.908, 1009.61, 1.8, 78.451, 333.9, , , , 34.3871, 23.3905, 1529.7568, 50.5895, 11.4520, 23.3905, 317.9, 7.2752, 1B
2009/03/21, 01:38:01, 20.661467, -110.345733, , , 334.0, 12.40, 334.6, 21.877, 1009.45, 1.6, 77.869, 333.9, , , , 34.3873, 23.3855, 1529.7492, 50.5866, 11.4981, 23.3855, 314.3, 7.2002, 1B
2009/03/21, 01:39:02, 20.664550, -110.347233, , , 335.0, 12.30, 335.1, 21.877, 1009.53, 1.4, 77.677, 334.4, , , , 34.3962, 23.3802, 1529.7407, 50.5909, 11.5099, 23.3802, 314.9, 7.3135, 1B
2009/03/21, 01:40:02, 20.667600, -110.348767, , , 333.0, 12.10, 334.3, 21.869, 1009.55, 1.4, 77.853, 333.7, , , , 34.4024, 23.3759, 1529.7366, 50.5946, 11.7861, 23.3759, 311.3, 7.5082, 1B
2009/03/21, 01:41:01, 20.670650, -110.350300, , , 333.0, 11.70, 334.5, 21.838, 1009.56, 1.3, 77.110, 333.9, , , , 34.3954, 23.3725, 1529.7219, 50.5825, 11.5140, 23.3725, 314.8, 7.6159, 1B
2009/03/21, 01:42:01, 20.673733, -110.351817, , , 337.0, 12.30, 335.1, 21.861, 1009.54, 1.0, 77.608, 334.6, , , , 34.3995, 23.3684, 1529.7155, 50.5845, 11.5972, 23.3684, 312.6, 7.2159, 1B
2009/03/21, 01:43:01, 20.676800, -110.353350, , , 336.0, 12.00, 335.4, 21.854, 1009.40, 1.0, 77.761, 334.3, , , , 34.3937, 23.3640, 1529.6996, 50.5721, 11.6375, 23.3640, 320.0, 7.1712, 1B
2009/03/21, 01:44:01, 20.679883, -110.354833, , , 335.0, 12.20, 334.6, 21.869, 1009.57, 1.0, 78.596, 334.4, , , , 34.4037, 23.3614, 1529.7032, 50.5822, 11.4171, 23.3614, 321.8, 6.9316, 1B
2009/03/21, 01:45:01, 20.682950, -110.356350, , , 335.0, 12.50, 334.8, 21.869, 1009.56, 1.0, 78.596, 334.6, , , , 34.4054, 23.3610, 1529.7015, 50.5830, 11.5326, 23.3610, 325.6, 7.3780, 1B
2009/03/21, 01:46:01, 20.686033, -110.357850, , , 336.0, 12.30, 333.9, 21.892, 1009.64, 1.0, 79.784, 333.7, , , , 34.4162, 23.3615, 1529.7150, 50.5979, 11.5436, 23.3615, 311.3, 7.1136, 1B
2009/03/21, 01:47:01, 20.689083, -110.359417, , , 333.0, 12.20, 334.3, 21.861, 1009.72, 1.0, 78.451, 333.9, , , , 34.4271, 23.3641, 1529.7337, 50.6149, 11.5420, 23.3641, 314.8, 7.3258, 1B
2009/03/21, 01:48:02, 20.692150, -110.360933, , , 334.0, 12.40, 335.0, 21.861, 1009.48, 1.0, 77.792, 334.4, , , , 34.4294, 23.3674, 1529.7446, 50.6213, 11.5499, 23.3674, 319.2, 8.0793, 1B
2009/03/21, 01:49:02, 20.695233, -110.362450, , , 336.0, 12.20, 334.7, 21.861, 1009.59, 0.8, 78.037, 334.6, , , , 34.4263, 23.3690, 1529.7452, 50.6188, 11.5119, 23.3690, 317.3, 7.5201, 1B
2009/03/21, 01:50:02, 20.698317, -110.363983, , , 334.0, 12.00, 333.9, 21.861, 1009.74, 0.7, 77.968, 333.4, , , , 34.4117, 23.3676, 1529.7258, 50.5983, 11.5482, 23.3676, 320.8, 7.9007, 1B
2009/03/21, 01:51:02, 20.701383, -110.365533, , , 334.0, 11.70, 334.7, 21.831, 1009.57, 0.5, 77.577, 334.0, , , , 34.4122, 23.3669, 1529.7246, 50.5982, 11.5310, 23.3669, 315.8, 7.3660, 1B
2009/03/21, 01:52:01, 20.704467, -110.367067, , , 332.0, 12.00, 335.0, 21.831, 1009.78, 0.5, 77.577, 334.3, , , , 34.4195, 23.3659, 1529.7300, 50.6067, 11.5482, 23.3659, 311.4, 8.0152, 1B
2009/03/21, 01:53:02, 20.707550, -110.368583, , , 334.0, 12.20, 334.2, 21.877, 1009.60, 0.5, 79.539, 334.1, , , , 34.4197, 23.3664, 1529.7315, 50.6075, 11.5396, 23.3664, 306.7, 7.0770, 1B
2009/03/21, 01:54:02, 20.710650, -110.370117, , , 335.0, 12.50, 335.2, 21.846, 1009.59, 0.5, 78.451, 334.3, , , , 34.4169, 23.3652, 1529.7254, 50.6027, 11.5644, 23.3652, 314.3, 7.0197, 1B
2009/03/21, 01:55:02, 20.713733, -110.371617, , , 336.0, 12.20, 334.5, 21.823, 1009.64, 0.5, 77.708, 334.2, , , , 34.4104, 23.3655, 1529.7191, 50.5944, 11.5176, 23.3655, 309.4, 7.8479, 1B
2009/03/21, 01:56:02, 20.716817, -110.373167, , , 335.0, 12.20, 334.5, 21.831, 1009.82, 0.5, 78.244, 333.6, , , , 34.4091, 23.3624, 1529.7098, 50.5896, 11.4925, 23.3624, 315.1, 7.3195, 1B
2009/03/21, 01:57:02, 20.719883, -110.374700, , , 334.0, 12.30, 334.6, 21.807, 1009.84, 0.5, 77.838, 334.4, , , , 34.4168, 23.3582, 1529.7076, 50.5954, 11.5120, 23.3582, 310.3, 7.7948, 1B
2009/03/21, 01:58:01, 20.722950, -110.376183, , , 334.0, 12.10, 334.4, 21.815, 1009.77, 0.5, 78.466, 334.2, , , , 34.4035, 23.3556, 1529.6903, 50.5768, 11.5406, 23.3556, 308.4, 7.4009, 1B
2009/03/21, 01:59:01, 20.726000, -110.377717, , , 335.0, 11.90, 335.3, 21.815, 1009.60, 0.5, 77.777, 334.6, , , , 34.3977, 23.3508, 1529.6680, 50.5628, 11.5318, 23.3508, 309.2, 7.9764, 1B
2009/03/21, 02:00:02, 20.729050, -110.379233, , , 333.0, 12.20, 333.7, 21.807, 1009.89, 0.5, 77.723, 333.9, , , , 34.3963, 23.3456, 1529.6534, 50.5557, 11.5157, 23.3456, 300.7, 8.2423, 1B
2009/03/21, 02:01:02, 20.732100, -110.380767, , , 336.0, 12.10, 334.6, 21.846, 1010.05, 0.7, 78.489, 334.0, , , , 34.3898, 23.3398, 1529.6316, 50.5413, 11.7553, 23.3398, 307.1, 7.5744, 1B
2009/03/21, 02:02:01, 20.735167, -110.382283, , , 336.0, 12.10, 334.7, 21.869, 1009.75, 1.0, 79.118, 334.7, , , , 34.3901, 23.3323, 1529.6155, 50.5504, 11.5055, 23.3323, 313.4, 7.6280, 1B
2009/03/21, 02:03:02, 20.738200, -110.383817, , , 333.0, 11.90, 334.8, 21.807, 1009.84, 0.6, 77.899, 334.3, , , , 34.3985, 23.3291, 1529.6140, 50.5417, 11.5127, 23.3291, 312.6, 7.7623, 1B